Location: Unspecified
(0.0000°N, 0.0000°E)
Time: 18:18:26
(UTC+00:00)

UWE-3 - Visible Passes

Search period start: 24 April 2018 00:00
Search period end: 04 May 2018 00:00
Orbit: 586 x 684 km, 97.6° (Epoch: 23 April)

Date Brightness Start Highest point End Pass type
(mag) Time Alt. Az. Time Alt. Az. Time Alt. Az.
24 Apr ? 19:40:44 10° SSW 19:44:03 24° WSW 19:47:23 10° NW visible
25 Apr ? 18:26:19 10° SE 18:29:42 25° ENE 18:33:06 10° NNE visible
25 Apr ? 20:04:33 10° WSW 20:05:53 11° WSW 20:07:14 10° W visible
26 Apr ? 18:47:31 10° SSE 18:51:33 53° ENE 18:55:35 10° N visible
27 Apr ? 19:09:17 10° S 19:13:24 69° W 19:17:31 10° NNW visible
28 Apr ? 19:31:34 10° SSW 19:35:14 31° WSW 19:38:56 10° NW visible
29 Apr ? 18:17:56 10° SE 18:20:53 19° ENE 18:23:52 10° NNE visible
29 Apr ? 19:54:39 10° SW 19:57:05 15° WSW 19:59:31 10° WNW visible
30 Apr ? 18:38:50 10° SSE 18:42:43 39° ENE 18:46:39 10° N visible
01 May ? 19:00:25 10° SSE 19:04:34 88° E 19:08:46 10° N visible
02 May ? 19:22:29 10° S 19:26:25 41° WSW 19:30:23 10° NNW visible
03 May ? 19:45:12 10° SSW 19:48:15 20° WSW 19:51:21 10° NW visible
